Location: Unnamed
(48.8836°N, 1.0859°W)
Time: 13:28:08
(UTC+02:00)

ISS - Pass Details

Date: 03 October 2021
Orbit: 417 x 423 km, 51.6° (Epoch: 16 October)

Event Time Altitude Azimuth Distance (km) Brightness Sun altitude
Rises 21:52:09 0° 284° (WNW) 2,365 1.5 -22.4°
Reaches altitude 10° 21:54:51 10° 260° (W) 1,498 -0.2 -22.8°
Maximum altitude 21:56:54 15° 223° (SW) 1,213 -1.2 -23.2°
Enters shadow 21:57:07 15° 218° (SW) 1,217 -1.3 -23.2°
